TimeCDT,TemperatureF,Dew PointF,Humidity,Sea Level PressureIn,VisibilityMPH,Wind Direction,Wind SpeedMPH,Gust SpeedMPH,PrecipitationIn,Events,Conditions,WindDirDegrees,DateUTC
12:53 AM,37.0,35.1,93,29.99,5.0,Calm,Calm,-,0.00,,Overcast,0,2013-03-30 05:53:00
1:48 AM,35.6,33.8,93,29.92,2.5,NNE,4.6,-,0.02,Rain,Light Rain,20,2013-03-30 06:48:00
1:53 AM,36.0,34.0,93,29.96,2.5,North,4.6,-,0.03,Rain,Light Rain,10,2013-03-30 06:53:00
2:07 AM,37.4,35.6,93,29.93,3.0,Calm,Calm,-,0.00,Rain,Light Rain,0,2013-03-30 07:07:00
2:20 AM,37.4,35.6,93,29.92,2.5,Calm,Calm,-,0.00,Rain,Light Rain,0,2013-03-30 07:20:00
2:34 AM,37.4,35.6,93,29.92,1.5,Calm,Calm,-,0.03,Rain,Rain,0,2013-03-30 07:34:00
2:53 AM,36.0,35.1,97,29.94,0.8,NE,4.6,-,0.09,Rain,Rain,40,2013-03-30 07:53:00
3:09 AM,37.4,35.6,93,29.90,1.5,ENE,4.6,-,0.04,Rain,Light Rain,60,2013-03-30 08:09:00
3:38 AM,37.4,35.6,93,29.89,1.0,ENE,3.5,-,0.08,Rain,Light Rain,60,2013-03-30 08:38:00
3:53 AM,37.0,36.0,96,29.91,1.5,Calm,Calm,-,0.09,,Overcast,0,2013-03-30 08:53:00
4:15 AM,35.6,35.6,100,29.87,0.2,NNE,4.6,-,0.00,Fog,Fog,20,2013-03-30 09:15:00
4:26 AM,35.6,35.6,100,29.88,0.8,Calm,Calm,-,0.00,,Overcast,0,2013-03-30 09:26:00
4:34 AM,37.4,35.6,93,29.87,1.0,Calm,Calm,-,0.00,,Overcast,0,2013-03-30 09:34:00
4:53 AM,37.0,35.1,93,29.91,0.8,Calm,Calm,-,0.00,,Overcast,0,2013-03-30 09:53:00
5:08 AM,35.6,35.6,100,29.87,0.2,Calm,Calm,-,N/A,Fog,Fog,0,2013-03-30 10:08:00
5:53 AM,33.1,33.1,100,29.90,0.2,Calm,Calm,-,N/A,Fog,Fog,0,2013-03-30 10:53:00
6:53 AM,34.0,33.1,96,29.90,0.2,NW,3.5,-,N/A,Fog,Fog,310,2013-03-30 11:53:00
7:41 AM,33.8,33.8,100,29.87,0.2,NW,4.6,-,N/A,Fog,Fog,310,2013-03-30 12:41:00
7:53 AM,34.0,34.0,100,29.92,0.2,NW,5.8,-,N/A,Fog,Fog,320,2013-03-30 12:53:00
8:53 AM,33.1,33.1,100,29.92,0.2,Calm,Calm,-,N/A,Fog,Fog,0,2013-03-30 13:53:00
9:21 AM,33.8,33.8,100,29.87,0.2,Calm,Calm,-,N/A,Fog,Fog,0,2013-03-30 14:21:00
9:53 AM,35.1,35.1,100,29.92,0.2,Calm,Calm,-,N/A,Fog,Fog,0,2013-03-30 14:53:00
10:14 AM,37.4,37.4,100,29.87,1.2,Calm,Calm,-,N/A,,Partly Cloudy,0,2013-03-30 15:14:00
10:17 AM,37.4,37.4,100,29.87,3.0,Calm,Calm,-,N/A,,Partly Cloudy,0,2013-03-30 15:17:00
10:53 AM,37.0,34.0,89,29.92,7.0,NW,5.8,-,N/A,,Clear,320,2013-03-30 15:53:00
11:53 AM,43.0,30.9,62,29.91,10.0,NW,8.1,-,N/A,,Clear,320,2013-03-30 16:53:00
12:53 PM,39.9,33.1,77,29.91,8.0,West,10.4,-,N/A,,Clear,270,2013-03-30 17:53:00
1:53 PM,39.9,30.9,70,29.91,10.0,West,12.7,-,N/A,,Clear,270,2013-03-30 18:53:00
2:53 PM,45.0,30.0,56,29.90,10.0,WNW,13.8,-,N/A,,Clear,290,2013-03-30 19:53:00
3:53 PM,44.1,32.0,63,29.90,10.0,WNW,10.4,-,N/A,,Clear,290,2013-03-30 20:53:00
4:53 PM,41.0,32.0,70,29.89,10.0,West,11.5,-,N/A,,Clear,270,2013-03-30 21:53:00
5:53 PM,41.0,28.9,62,29.90,10.0,WNW,12.7,-,N/A,,Clear,300,2013-03-30 22:53:00
6:53 PM,37.9,28.0,68,29.90,10.0,WNW,13.8,-,N/A,,Clear,300,2013-03-30 23:53:00
7:53 PM,36.0,28.0,73,29.90,9.0,WNW,10.4,-,N/A,,Clear,300,2013-03-31 00:53:00
8:53 PM,33.1,27.0,78,29.91,10.0,WNW,9.2,-,N/A,,Mostly Cloudy,300,2013-03-31 01:53:00
9:53 PM,30.9,26.1,82,29.91,9.0,WNW,6.9,-,N/A,,Partly Cloudy,290,2013-03-31 02:53:00
10:53 PM,30.9,27.0,85,29.91,8.0,WNW,8.1,-,N/A,,Mostly Cloudy,290,2013-03-31 03:53:00
11:53 PM,30.9,27.0,85,29.88,8.0,West,5.8,-,N/A,,Overcast,280,2013-03-31 04:53:00